Tracking 30692 objects as of 16-Jun-2025
HD Live streaming from Space Station
objects crossing your sky now

COSMOS 1275 DEB

Track COSMOS 1275 DEB now!
10-day predictions


NORAD ID: 15780
Int'l Code: 1981-053KH
Perigee: 875.8 km
Apogee: 957.5 km
Inclination: 82.8 °
Period: 103.2 minutes
Semi major axis: 7287 km
RCS: 0.022 m2 (small)
Launch date: June 4, 1981
Source: Commonwealth of Independent States (former USSR) (CIS)
Launch site: PLESETSK MISSILE AND SPACE COMPLEX (PKMTR)

Note: This is SATELLITE DEBRIS
Your satellite tracking list
Your tracking list is empty




NASA's NSSDC Master Catalog

Two Line Element Set (TLE):
1 15780U 81053KE  25166.47428568  .00001152  00000-0  82616-3 0  9997
2 15780  82.8155 177.3299 0056087 118.3221  33.5971 13.95479622 29067
Source of the keplerian elements: AFSPC